Location: *
(46.3500°N, 10.9000°E)
Time: 23:59:56
(UTC+00:00)

Vanguard 2 - Pass Details

Date: 28 April 2021
Orbit: 552 x 2938 km, 32.9° (Epoch: 12 May)

Event Time Altitude Azimuth Distance (km) Brightness Sun altitude
Rises 10:14:09 0° 243° (WSW) 6,664 12.3 55.6°
Reaches altitude 10° 10:18:44 10° 239° (WSW) 5,739 12.2 55.9°
Maximum altitude 10:35:15 48° 173° (S) 3,340 13.1 56.9°
Drops below altitude 10° 10:48:34 10° 105° (ESE) 4,703 11.9 57.5°
Sets 10:51:53 0° 100° (E) 5,423 12.0 57.6°
